Satellite-Ground Cal/Val Region Overpasses Predictions

Prediction of Satellite NPP Overpassing Cal/Val Region: PacNW

Region Location: (Latitude: 10.00, Longitude: 139.50) to (Latitude: 22.70, Longitude: 165.60).

Table of predicted overpasses for the next 14.0 days since TLE Epoch: 6/30/2020
Interval Starting Time Starting Location Ending Time Ending Location
1 07/01/2020 03:16:56 ( 10.02, 150.45) 07/01/2020 03:20:32 ( 22.70, 147.43)
2 07/01/2020 15:48:50 ( 22.66, 147.68) 07/01/2020 15:52:25 ( 10.04, 144.68)
3 07/02/2020 02:57:55 ( 10.00, 155.21) 07/02/2020 03:01:31 ( 22.68, 152.19)
4 07/02/2020 15:29:49 ( 22.68, 152.44) 07/02/2020 15:33:24 ( 10.06, 149.44)
5 07/03/2020 02:38:54 ( 10.05, 159.95) 07/03/2020 02:42:29 ( 22.67, 156.95)
6 07/03/2020 15:10:47 ( 22.69, 157.20) 07/03/2020 15:14:23 ( 10.01, 154.18)
7 07/04/2020 02:19:53 ( 10.03, 164.71) 07/04/2020 02:23:28 ( 22.65, 161.71)
8 07/04/2020 14:51:47 ( 22.65, 161.95) 07/04/2020 14:55:22 ( 10.03, 158.94)
9 07/05/2020 03:42:21 ( 10.02, 144.10) 07/05/2020 03:45:56 ( 22.64, 141.09)
10 07/05/2020 14:34:02 ( 18.15, 165.60) 07/05/2020 14:36:20 ( 10.04, 163.70)
11 07/05/2020 16:14:15 ( 22.66, 141.33) 07/05/2020 16:16:23 ( 15.15, 139.51)
12 07/06/2020 03:23:20 ( 10.01, 148.85) 07/06/2020 03:26:56 ( 22.69, 145.84)
13 07/06/2020 15:55:14 ( 22.67, 146.09) 07/06/2020 15:58:49 ( 10.05, 143.08)
14 07/07/2020 03:04:19 ( 10.05, 153.60) 07/07/2020 03:07:54 ( 22.67, 150.60)
15 07/07/2020 15:36:12 ( 22.69, 150.85) 07/07/2020 15:39:48 ( 10.01, 147.83)
16 07/08/2020 02:45:18 ( 10.04, 158.36) 07/08/2020 02:48:53 ( 22.66, 155.36)
17 07/08/2020 15:17:11 ( 22.70, 155.61) 07/08/2020 15:20:47 ( 10.02, 152.59)
18 07/09/2020 02:26:17 ( 10.03, 163.12) 07/09/2020 02:29:52 ( 22.65, 160.11)
19 07/09/2020 14:58:10 ( 22.65, 160.35) 07/09/2020 15:01:45 ( 10.03, 157.35)
20 07/10/2020 02:10:00 ( 19.70, 165.60) 07/10/2020 02:10:51 ( 22.69, 164.86)
21 07/10/2020 03:48:45 ( 10.02, 142.50) 07/10/2020 03:52:19 ( 22.58, 139.51)
22 07/10/2020 14:39:09 ( 22.67, 165.11) 07/10/2020 14:42:44 ( 10.05, 162.11)
23 07/10/2020 16:20:39 ( 22.66, 139.74) 07/10/2020 16:20:55 ( 21.73, 139.50)
24 07/11/2020 03:29:44 ( 10.00, 147.26) 07/11/2020 03:33:20 ( 22.68, 144.24)
25 07/11/2020 16:01:37 ( 22.68, 144.49) 07/11/2020 16:05:12 ( 10.06, 141.49)
26 07/12/2020 03:10:43 ( 10.05, 152.01) 07/12/2020 03:14:18 ( 22.67, 149.00)
27 07/12/2020 15:42:36 ( 22.69, 149.25) 07/12/2020 15:46:12 ( 10.01, 146.24)
28 07/13/2020 02:51:42 ( 10.04, 156.77) 07/13/2020 02:55:17 ( 22.66, 153.76)
29 07/13/2020 15:23:35 ( 22.64, 154.00) 07/13/2020 15:27:10 ( 10.02, 150.99)
30 07/14/2020 02:32:40 ( 10.03, 161.52) 07/14/2020 02:36:15 ( 22.65, 158.52)
